Вернуться в каталог

STARLINK-38138

АктивенСвязьSSO
NORAD 100384·PAYLOAD·🇺🇸 United States

Запущен Aug 19, 2026 с Vandenberg Space Force Base

Loading…

Ближайшие Пролёты (ближайшие 24 часа)

TLE

СвежийSource: Space-Track

Эпоха: Sep 14, 2026, 12:45 UTC

1 A0384U 26190P   26257.53136919  .00326660  00000-0  20042-2 0  9995
2 A0384  97.2845 111.5545 0000826 163.4433 196.6860 15.76355961  5407

Отслеживайте STARLINK-38138 в реальном времени с AllMySat

Download on the App Store